Regional Weather Roundup
Issued by NWS

Home | Current Version | Previous Version | Text Only | Print | Product List | Glossary Off
Versions: 1 2 3 4 5 6 7 8 9 10 11 12 13 14 15 16 17 18 19 20 21 22 23 24 25 26 27 28 29 30 31 32 33 34 35 36 37 38 39 40 41 42 43 44 45 46 47 48 49 50

000
ASUS45 KABQ 060801
RWRNM
WEATHER ROUNDUP FOR NEW MEXICO
NATIONAL WEATHER SERVICE ALBUQUERQUE NM
200 AM MDT WED MAY 06 2015

NOTE: "FAIR" MEANS FEW OR NO CLOUDS BELOW 12,000 FEET AGL WITH NO
       SIGNIFICANT WEATHER OR OBSTRUCTIONS TO VISION.

      THIS PRODUCT IS RELEASED AS TWO VERSIONS.  ONE VERSION NEAR
      THE TOP OF THE HOUR CONTAINING PRELIMINARY DATA FROM ALBUQUERQUE
      AND OTHER STATIONS.  A FINAL VERSION WITH ADDITIONAL DATA IS
      ISSUED ABOUT 10 MINUTES AFTER THE HOUR.

NMZ501-503-504-510>518-060900-
NORTHWEST PLATEAU/NORTHCENTRAL MOUNTAINS

CITY           SKY/WX    TMP DP  RH WIND       PRES   REMARKS
FARMINGTON     CLOUDY    50  44  80 W9        29.90R
SANTA FE       MOCLDY    48  43  82 SW9       29.95F
TAOS           CLOUDY    45  36  70 W7        29.95F

$$
NMZ402-403-502-505>509-060900-
WESTCENTRAL MOUNTAINS/SOUTHWEST MOUNTAINS

CITY           SKY/WX    TMP DP  RH WIND       PRES   REMARKS
GALLUP         PTCLDY    47  44  90 SW14      29.99F
SILVER CITY      N/A     45  37  76 N10       30.04S

$$
NMZ407-409-411-412-060900-
SOUTHERN DESERTS

CITY           SKY/WX    TMP DP  RH WIND       PRES   REMARKS
DEMING         CLEAR     53  38  56 SW6       29.98F
HOLLOMAN AFB   PTCLDY    60  40  49 SE5       29.92F
ALAMOGORDO     PTCLDY    57  36  44 S5        29.95F
T OR C         CLEAR     55  38  52 NE5       29.96S

$$
NMZ519>523-060900-
CENTRAL VALLEYS/CENTRAL HIGHLANDS

CITY           SKY/WX    TMP DP  RH WIND       PRES   REMARKS
ALBUQUERQUE    CLOUDY    54  44  69 S7        29.95F
DOUBLE EAGLE   CLOUDY    50  44  79 SW15      29.96F
CLINES CORNERS PTCLDY    45  39  79 W25       29.93F
BELEN          PTSUNNY   55  43  63 W10       29.95F
SOCORRO        NOT AVBL

$$
NMZ524>526-539-540-060900-
SOUTHCENTRAL MOUNTAINS

CITY           SKY/WX    TMP DP  RH WIND       PRES   REMARKS
RUIDOSO        NOT AVBL

$$
NMZ527>531-060900-
NORTHEAST HIGHLANDS/NORTHEAST PLAINS

CITY           SKY/WX    TMP DP  RH WIND       PRES   REMARKS
LAS VEGAS      MOCLDY    47  39  74 SW13      29.89F
RATON          MOCLDY    44  41  89 W6        29.81F
CLAYTON        CLEAR     49  45  86 SW9       29.76F

$$
NMZ532>537-060900-
EASTCENTRAL PLAINS

CITY           SKY/WX    TMP DP  RH WIND       PRES   REMARKS
TUCUMCARI      CLEAR     53  46  77 SW14      29.80F
CANNON AFB     NOT AVBL
CLOVIS AIRPORT CLEAR     50  46  87 W6        29.86F

$$
NMZ028-029-538-060900-
SOUTHEAST PLAINS

CITY           SKY/WX    TMP DP  RH WIND       PRES   REMARKS
ROSWELL        CLEAR     53  46  77 E3        29.86F
ARTESIA        CLEAR     59  43  55 SW12      29.88S
CARLSBAD       CLEAR     59  45  59 W12       29.87F
HOBBS          CLEAR     59  59 100 S9        29.91F FOG


$$


USA.gov is the U.S. government's official web portal to all federal, state and local government web resources and services.